"Pseudo-MPEC" for C5ZE5N2

Created 2021 Sep 17 11:07:07 UT using Find_Orb

Click here for an explanation of pseudo-MPECs

 
 Astrometry: 
     C5ZE5N2  C2021 09 15.34964900 23 03.53 +31 15 23.1    ~9F97 21.65GVNEOCPG96
     C5ZE5N2  C2021 09 15.35620700 23 02.22 +31 14 59.7    ~9F97 21.54GVNEOCPG96
     C5ZE5N2  C2021 09 15.36148500 23 01.24 +31 14 40.8    ~9F97 21.22GVNEOCPG96
     C5ZE5N2  C2021 09 15.36673800 23 00.17 +31 14 22.2    ~9F97 21.22GVNEOCPG96
     C5ZE5N2 mC2021 09 15.46168600 22 41.85 +31 08 38.5    ~9FBM 22.02GVNEOCPG96
     C5ZE5N2 mC2021 09 15.46290900 22 41.62 +31 08 34.0    ~9FBM 21.63GVNEOCPG96
     C5ZE5N2 mC2021 09 15.46413200 22 41.39 +31 08 29.5    ~9FBM 21.74GVNEOCPG96
     C5ZE5N2 KC2021 09 16r)bWYgn,uIQ.aaoXP1AstrometryCau=Vqredacted;)_2,t+aXGH21
     C5ZE5N2 KC2021 09 16k4fwc5(rvDNFYWy@RP$click5j`duGvvegheree+N@FFqjOqG.N(H21
     C5ZE5N2 KC2021 09 17[qX9qm)W1%Y-!xN@*lforoJ9ou]Dl^explanation,u_400lI':RH21
     C5ZE5N2 KC2021 09 178%1q3gJa-T.X!LT^pwWO6k_F8.'R;sWEDmo`UIn1'o]5-.6^e?tVH21
     C5ZE5N2 KC2021 09 17%@Hg!T\ufc@005J?^Q?ghUOvE3adbrC(t1^OGY;0yKuhv:LnkE64H21

Station data:
(G96) Mt. Lemmon Survey  (N32.442754 W110.788720)  US/Arizona.  Observers T.
   A. Pruyne, B. M. Africano, E. J. Christensen, G. A. Farneth, D. C. Fuls,
   A. R. Gibbs, A. D. Grauer, H. Gröller, J. A. Johnson, R. A. Kowalski, S.
   M. Larson, G. J. Leonard, D. Rankin, R. L. Seaman, F. C. Shelly. 1.5-m
   reflector + 10K CCD.
(H21) Astronomical Research Observatory, Westfield  (N39.483057 W87.968270)
   US/Illinois. 0.76-m f/3.0 astrograph + CCD.

Orbital elements:  C5ZE5N2
   Perihelion 2021 Jun 1.941279 +/- 0.217396 TT = 22:35:26 (JD 2459367.441279)
Epoch 2021 Sep 17.0 TT = JDT 2459474.5   Earth MOID: 0.0670   AutoNEOCP
M  95.18090034 +/- 0.3171033        (J2000 ecliptic)
n   0.88905321 +/- 0.00128936       Peri.   25.39376 +/- 0.0942069
a   1.07115144 +/- 0.00103559       Node   214.52047 +/- 0.1745258
e   0.1962893 +/- 0.00194557        Incl.    5.09585 +/- 0.0606809
P   1.11/404.92d           H 24.3   G  0.15   U  8.3  
q 0.86089586 +/- 0.00144007    Q 1.28140702 +/- 0.00320456
From 12 observations 2021 Sept. 15-17 (46.4 hr); mean residual 0".17
Residuals in arcseconds: 
210915 G96  .01-  .24+    210915 G96  .02+  .22-    210916 H21  .01-  .02-    
210915 G96  .30-  .14+    210915 G96  .02+  .25-    210917 H21  .06+  .27-    
210915 G96  .42+  .03+    210915 G96  .03+  .27-    210917 H21  .02-  .06+    
210915 G96  .09-  .15+    210916 H21  .10-  .20+    210917 H21  .01+  .15+    

Ephemerides (geocentric):
Date (UTC) HH   RA              Dec         delta   r     elong  mag " sig PA
---- -- -- --  -------------   -----------  ------ ------ -----  --- ---- ---
2021 09 17 11  00 17 13.101   +29 10 18.68  .14565 1.1304 147.4 21.7 .125 167
2021 09 17 12  00 17 06.373   +29 07 49.68  .14571 1.1306 147.5 21.7 .128 167
2021 09 17 13  00 16 59.653   +29 05 20.66  .14576 1.1307 147.5 21.7 .131 167
2021 09 17 14  00 16 52.940   +29 02 51.62  .14582 1.1308 147.6 21.7 .134 167
2021 09 17 15  00 16 46.236   +29 00 22.57  .14587 1.1309 147.7 21.7 .138 167
2021 09 17 16  00 16 39.539   +28 57 53.50  .14592 1.1311 147.7 21.7 .141 167
2021 09 17 17  00 16 32.851   +28 55 24.41  .14598 1.1312 147.8 21.7 .144 167
2021 09 17 18  00 16 26.170   +28 52 55.31  .14603 1.1313 147.9 21.7 .147 167
2021 09 17 19  00 16 19.498   +28 50 26.19  .14609 1.1314 148.0 21.7 .150 167
2021 09 17 20  00 16 12.833   +28 47 57.06  .14614 1.1316 148.0 21.7 .154 168
2021 09 17 21  00 16 06.177   +28 45 27.91  .14620 1.1317 148.1 21.7 .157 168
2021 09 17 22  00 15 59.529   +28 42 58.76  .14625 1.1318 148.2 21.7 .160 168
2021 09 17 23  00 15 52.888   +28 40 29.58  .14631 1.1319 148.2 21.7 .164 168
2021 09 18 00  00 15 46.256   +28 38 00.40  .14637 1.1320 148.3 21.7 .167 169
2021 09 18 01  00 15 39.632   +28 35 31.20  .14642 1.1322 148.4 21.7 .171 169
2021 09 18 02  00 15 33.016   +28 33 01.99  .14648 1.1323 148.5 21.7 .174 169
2021 09 18 03  00 15 26.408   +28 30 32.78  .14654 1.1324 148.5 21.7 .178 170
2021 09 18 04  00 15 19.808   +28 28 03.55  .14659 1.1325 148.6 21.7 .181 170
2021 09 18 05  00 15 13.217   +28 25 34.31  .14665 1.1327 148.7 21.7 .185 171
2021 09 18 06  00 15 06.633   +28 23 05.06  .14671 1.1328 148.7 21.7 .189 171
2021 09 18 07  00 15 00.058   +28 20 35.80  .14676 1.1329 148.8 21.7 .192 172
2021 09 18 08  00 14 53.490   +28 18 06.53  .14682 1.1330 148.9 21.7 .196 172
2021 09 18 09  00 14 46.931   +28 15 37.26  .14688 1.1331 149.0 21.7 .200 173
2021 09 18 10  00 14 40.380   +28 13 07.98  .14694 1.1333 149.0 21.7 .204 173
2021 09 18 11  00 14 33.837   +28 10 38.69  .14699 1.1334 149.1 21.7 .208 174
2021 09 18 12  00 14 27.303   +28 08 09.40  .14705 1.1335 149.2 21.7 .212 174
2021 09 18 13  00 14 20.776   +28 05 40.10  .14711 1.1336 149.2 21.7 .216 175
2021 09 18 14  00 14 14.258   +28 03 10.79  .14717 1.1338 149.3 21.7 .220 175
2021 09 18 15  00 14 07.748   +28 00 41.48  .14723 1.1339 149.4 21.7 .224 176
2021 09 18 16  00 14 01.246   +27 58 12.17  .14729 1.1340 149.4 21.7 .228 176
2021 09 18 17  00 13 54.752   +27 55 42.85  .14734 1.1341 149.5 21.7 .233 177
2021 09 18 18  00 13 48.267   +27 53 13.53  .14740 1.1343 149.6 21.7 .237 178
2021 09 18 19  00 13 41.789   +27 50 44.20  .14746 1.1344 149.7 21.6 .242 178
2021 09 18 20  00 13 35.320   +27 48 14.88  .14752 1.1345 149.7 21.6 .246 179
2021 09 18 21  00 13 28.860   +27 45 45.55  .14758 1.1346 149.8 21.6 .251 179
2021 09 18 22  00 13 22.407   +27 43 16.22  .14764 1.1347 149.9 21.6 .256   0
2021 09 18 23  00 13 15.963   +27 40 46.89  .14770 1.1349 149.9 21.6 .260   0
2021 09 19 00  00 13 09.527   +27 38 17.56  .14776 1.1350 150.0 21.6 .265   1
2021 09 19 01  00 13 03.099   +27 35 48.23  .14782 1.1351 150.1 21.6 .270   2
2021 09 19 02  00 12 56.680   +27 33 18.90  .14788 1.1352 150.1 21.6 .275   2
2021 09 19 03  00 12 50.269   +27 30 49.57  .14794 1.1354 150.2 21.6 .280   3
2021 09 19 04  00 12 43.866   +27 28 20.25  .14801 1.1355 150.3 21.6 .285   3
2021 09 19 05  00 12 37.471   +27 25 50.92  .14807 1.1356 150.4 21.6 .291   4
2021 09 19 06  00 12 31.085   +27 23 21.60  .14813 1.1357 150.4 21.6 .296   4
2021 09 19 07  00 12 24.707   +27 20 52.29  .14819 1.1358 150.5 21.6 .302   5
2021 09 19 08  00 12 18.338   +27 18 22.97  .14825 1.1360 150.6 21.6 .307   6
2021 09 19 09  00 12 11.976   +27 15 53.67  .14831 1.1361 150.6 21.6 .313   6
2021 09 19 10  00 12 05.624   +27 13 24.36  .14838 1.1362 150.7 21.6 .319   7